TimeAKST,TemperatureF,Dew PointF,Humidity,Sea Level PressureIn,VisibilityMPH,Wind Direction,Wind SpeedMPH,Gust SpeedMPH,PrecipitationIn,Events,Conditions,WindDirDegrees,DateUTC
12:53 AM,39.9,35.1,83,30.07,10.0,ESE,11.5,-,0.02,Rain,Light Rain,120,2013-03-09 09:53:00
1:01 AM,39.2,35.6,87,30.07,10.0,ESE,8.1,-,0.00,Rain,Light Rain,110,2013-03-09 10:01:00
1:53 AM,39.9,35.1,83,30.07,10.0,ESE,12.7,-,0.00,Rain,Light Rain,110,2013-03-09 10:53:00
3:53 AM,39.9,34.0,79,30.04,10.0,ESE,12.7,-,0.00,Rain,Light Rain,110,2013-03-09 12:53:00
4:53 AM,39.9,34.0,79,30.04,10.0,ESE,13.8,-,0.00,Rain,Light Rain,110,2013-03-09 13:53:00
5:53 AM,39.9,35.1,83,30.03,9.0,ESE,12.7,-,0.02,Rain,Light Rain,110,2013-03-09 14:53:00
6:46 AM,39.2,33.8,81,30.02,10.0,North,-9999.0,-,0.01,Rain,Light Rain,0,2013-03-09 15:46:00
6:53 AM,39.0,35.1,86,30.02,10.0,ESE,11.5,-,0.01,Rain,Light Rain,110,2013-03-09 15:53:00
7:10 AM,39.2,35.6,87,30.01,10.0,ESE,15.0,-,0.00,Rain,Light Rain,110,2013-03-09 16:10:00
7:53 AM,39.9,35.1,83,30.00,10.0,East,6.9,-,0.00,Rain,Light Rain,100,2013-03-09 16:53:00
8:31 AM,39.2,33.8,81,30.00,10.0,ESE,10.4,-,0.01,Rain,Light Rain,110,2013-03-09 17:31:00
8:53 AM,39.9,34.0,79,30.00,10.0,East,9.2,-,0.02,Rain,Light Rain,100,2013-03-09 17:53:00
9:53 AM,39.0,35.1,86,29.99,10.0,East,10.4,-,0.02,Rain,Light Rain,100,2013-03-09 18:53:00
10:53 AM,39.9,35.1,83,29.98,6.0,ESE,10.4,-,0.02,Rain,Light Rain,120,2013-03-09 19:53:00
11:53 AM,39.0,36.0,89,29.97,7.0,East,9.2,-,0.05,Rain,Light Rain,100,2013-03-09 20:53:00
12:53 PM,39.0,36.0,89,29.96,7.0,SE,9.2,-,0.03,Rain,Light Rain,140,2013-03-09 21:53:00
1:53 PM,39.0,37.0,93,29.95,8.0,South,10.4,-,0.03,Rain,Light Rain,190,2013-03-09 22:53:00
2:19 PM,37.4,35.6,93,29.95,7.0,SSE,8.1,17.3,0.01,Rain,Light Rain,150,2013-03-09 23:19:00
2:42 PM,37.4,35.6,93,29.96,7.0,SSE,18.4,-,0.03,Rain,Light Rain,160,2013-03-09 23:42:00
2:53 PM,37.0,35.1,93,29.96,3.0,SSE,18.4,-,0.05,Rain,Rain,160,2013-03-09 23:53:00
3:00 PM,37.4,35.6,93,29.96,4.0,SW,12.7,21.9,0.01,Rain,Light Rain,230,2013-03-10 00:00:00
3:09 PM,37.4,35.6,93,29.96,4.0,SW,19.6,-,0.02,Rain,Light Rain,230,2013-03-10 00:09:00
3:16 PM,37.4,35.6,93,29.96,4.0,SW,20.7,27.6,0.02,Rain,Light Rain,230,2013-03-10 00:16:00
3:53 PM,37.0,35.1,93,29.94,9.0,West,31.1,39.1,0.02,Rain,Light Rain,260,2013-03-10 00:53:00
4:35 PM,37.4,33.8,87,30.01,10.0,West,21.9,29.9,0.01,Rain,Light Rain,280,2013-03-10 01:35:00
4:48 PM,37.4,33.8,87,30.02,10.0,WNW,18.4,-,0.01,Rain,Light Rain,290,2013-03-10 01:48:00
4:53 PM,37.0,35.1,93,30.03,10.0,WNW,19.6,-,0.01,Rain,Light Rain,290,2013-03-10 01:53:00
5:15 PM,37.4,35.6,93,30.04,10.0,West,12.7,-,0.00,Rain,Light Rain,280,2013-03-10 02:15:00
5:53 PM,37.0,34.0,89,30.06,8.0,West,12.7,-,0.01,Rain,Light Rain,280,2013-03-10 02:53:00
6:00 PM,35.6,33.8,93,30.07,5.0,West,9.2,-,0.01,Rain,Light Rain,280,2013-03-10 03:00:00
6:19 PM,35.6,33.8,93,30.08,10.0,Calm,Calm,-,0.03,Rain,Light Rain,0,2013-03-10 03:19:00
6:53 PM,36.0,33.1,89,30.09,10.0,Calm,Calm,-,0.03,,Overcast,0,2013-03-10 03:53:00
7:53 PM,37.9,34.0,86,30.13,10.0,Variable,5.8,-,N/A,,Overcast,0,2013-03-10 04:53:00
8:22 PM,37.4,32.0,81,30.14,10.0,WSW,13.8,-,0.01,Snow,Light Snow,240,2013-03-10 05:22:00
8:37 PM,39.2,32.0,75,30.15,10.0,WSW,9.2,-,0.01,,Overcast,250,2013-03-10 05:37:00
8:53 PM,39.0,30.0,70,30.17,10.0,West,13.8,21.9,0.01,Rain,Light Rain,280,2013-03-10 05:53:00
9:53 PM,39.0,32.0,76,30.19,10.0,West,6.9,-,0.00,,Overcast,270,2013-03-10 06:53:00
10:53 PM,39.0,33.1,79,30.21,10.0,North,5.8,-,0.00,,Mostly Cloudy,350,2013-03-10 07:53:00
11:53 PM,39.9,33.1,77,30.23,10.0,WSW,12.7,-,0.01,,Mostly Cloudy,250,2013-03-10 08:53:00